[[{"header":{"parameterUnit":"m.s-1","parameterCategory":1,"la1":30.2991,"la2":30.254,"lo1":-89.0895,"lo2":-89.0444,"dx":0.0017,"dy":0.0017,"nx":28,"ny":28,"refTime":"2022-12-14T09:00:00:Z","depth":0,"parameterNumber":2,"parameterNumberName":"U-component_of_WINDS"},"data":[0,0,0,0,0,0,0,0,0,0,0,0,0,0,0,0,0,0,0,0,0,0,0,0,0,0,0,0,0,0,0,0,0,0,0,0,0,0,0,0,0,0,0,0,0,0,0,0,0,0,0,0,0,0,0,0,0,0,3.3493,3.3494,0,3.3648,3.365,3.3652,3.3634,3.3631,3.3629,3.3627,3.3787,3.3793,3.38,0,0,0,0,0,0,0,0,0,0,0,0,0,3.3181,3.3186,3.3492,3.3494,3.3496,3.3648,3.365,3.3652,3.3634,3.3631,3.3628,3.3625,3.3785,3.3793,3.38,0,0,0,0,0,0,0,0,0,0,0,0,0,3.3324,3.3188,3.3492,3.3506,3.3508,3.3648,3.365,3.3653,3.3635,3.3631,3.3627,3.3624,3.3782,3.3792,3.3802,3.3937,0,0,3.3832,3.3836,0,0,0,0,0,0,0,0,3.3316,3.3336,3.3502,3.3505,3.3508,3.3618,3.3599,3.3748,3.3636,3.3587,3.3627,3.3622,3.3734,3.3747,3.3785,3.3945,3.3952,3.3833,3.3839,3.3843,3.3846,0,0,0,0,0,0,0,3.3306,3.3329,3.3554,3.3504,3.3508,3.3504,3.3521,3.3627,3.3679,3.3591,3.359,3.3609,3.3735,3.3775,3.3788,3.3954,3.3832,3.3841,3.3847,3.3851,3.4233,3.4237,0,0,0,0,0,0,3.3293,3.3321,3.3549,3.3559,3.3401,3.3513,3.3531,3.3587,3.3678,3.3689,3.3612,3.3607,3.376,3.3777,3.3794,3.3958,3.3843,3.3852,3.3858,3.4229,3.4234,3.4239,0,0,0,0,0,0,3.3286,3.3313,3.3543,3.344,3.3468,3.3522,3.3585,3.3592,3.3632,3.3694,3.3703,3.3643,3.3758,3.378,3.3902,3.3964,3.3857,3.3865,3.4224,3.423,3.4236,3.4289,0,0,0,0,0,0,3.3277,3.3311,3.3363,3.3441,3.3474,3.3648,3.3588,3.3597,3.3649,3.3645,3.3726,3.3736,3.3757,3.3887,3.3912,3.3975,3.3873,3.4219,3.4227,3.4234,3.4282,3.4296,3.4308,0,0,0,0,0,3.3266,3.3372,3.3366,3.3393,3.354,3.3651,3.3671,3.3692,3.3654,3.3707,3.3747,3.3733,3.3953,3.39,3.3927,3.3995,3.4215,3.4224,3.4234,3.4276,3.4293,3.4308,0,0,0,0,0,0,3.33,3.3382,3.3376,3.351,3.3574,3.3648,3.3715,3.371,3.3786,3.3779,3.3802,3.3821,3.3944,3.3982,3.392,3.4131,3.4079,3.4094,3.4101,3.4119,3.4132,3.412,3.3881,0,0,0,0,0,3.3323,3.3406,3.3474,3.3586,3.3618,3.3661,3.3711,3.3722,3.3789,3.3816,3.3864,3.393,3.4014,3.4069,3.4149,3.4288,3.4305,3.4348,3.4361,3.4372,3.4384,3.446,3.4479,3.427,3.427,3.4269,0,0,3.3372,3.3427,3.3478,3.3594,3.3645,3.373,3.3684,3.3777,3.3841,3.383,3.3947,3.3985,3.406,3.4191,3.4251,3.4226,3.4446,3.4384,3.4392,3.4399,3.4472,3.4491,3.4509,3.4276,3.4275,3.4274,0,0,3.3504,3.3554,3.3652,3.3704,3.3781,3.3809,3.3833,3.3908,3.3933,3.4051,3.4045,3.4121,3.4265,3.4319,3.4365,3.4517,3.4508,3.4543,3.4613,3.4686,3.4702,3.4717,3.477,3.4789,3.4556,3.4556,3.4556,0,3.3554,3.3683,3.3704,3.3798,3.3848,3.3842,3.3942,3.3991,3.4091,3.4126,3.4098,3.4278,3.4328,3.4471,3.4508,3.4546,3.4573,3.4533,3.4698,3.4713,3.4727,3.4778,3.4799,3.456,3.4559,3.4559,3.4559,0,3.3741,3.383,3.3901,3.3996,3.4056,3.4152,3.4187,3.4245,3.4251,3.4282,3.4402,3.4463,3.4555,3.459,3.4597,3.4734,3.4716,3.4693,3.464,3.475,3.4799,3.4819,3.4565,3.4564,3.4563,3.4562,0,0,3.3898,3.4004,3.403,3.4073,3.4157,3.4227,3.4323,3.4413,3.4462,3.4531,3.4612,3.4734,3.4713,3.4765,3.4778,3.4843,3.4959,3.4812,3.4814,3.4836,3.5112,3.5128,3.515,3.4953,3.4957,3.496,3.5105,0,3.4038,3.4207,3.4229,3.4379,3.4462,3.4457,3.4541,3.4602,3.4634,3.4709,3.4744,3.483,3.4796,3.4827,3.4891,3.4931,3.5014,3.4921,3.5028,3.5032,3.5008,3.5176,3.5193,3.5327,3.5124,3.5128,3.513,0,3.4223,3.4297,3.4455,3.4528,3.4563,3.4638,3.4722,3.4794,3.4863,3.4882,3.494,3.4945,3.5045,3.4989,3.5126,3.5063,3.5108,3.5134,3.514,3.515,3.5087,3.5189,3.537,3.539,3.516,3.5158,3.5156,0,3.432,3.446,3.4572,3.4609,3.4697,3.475,3.4789,3.4855,3.4907,3.4981,3.5015,3.51,3.5146,3.5211,3.5239,3.5196,3.5374,3.5321,3.5392,3.5392,3.5429,3.5426,3.5619,3.546,3.546,3.546,3.5459,0,3.4473,3.457,3.4617,3.4686,3.4794,3.4818,3.4925,3.4962,3.5021,3.5097,3.5099,3.5171,3.5203,3.528,3.5303,3.5412,3.5434,3.5451,3.5456,3.545,3.5448,3.5479,3.547,3.5465,3.5464,3.5463,3.5462,0,3.46,3.4635,3.4758,3.4831,3.4852,3.4928,3.4991,3.5058,3.5089,3.5186,3.521,3.5259,3.5349,3.5384,3.5494,3.5509,3.5636,3.5634,3.5612,3.5613,3.5681,3.5674,3.59,3.593,3.5753,3.5755,3.5756,0,3.4695,3.4769,3.485,3.4901,3.4942,3.5024,3.5078,3.5105,3.516,3.5245,3.5302,3.5392,3.5465,3.561,3.5655,3.574,3.5739,3.5812,3.5752,3.5744,3.5739,3.5733,3.574,3.5823,3.5825,3.5826,3.5828,0,3.4859,3.4873,3.4949,3.5033,3.5096,3.5163,3.5228,3.527,3.5306,3.5369,3.5461,3.5518,3.563,3.572,3.5806,3.5847,3.5844,3.5847,3.5867,3.5862,3.5846,3.5854,3.5641,3.5841,3.584,3.5839,3.5838,3.5837,3.4972,3.5038,3.5105,3.519,3.5241,3.5302,3.5368,3.5408,3.5485,3.5578,3.559,3.5688,3.5756,3.5872,3.5916,3.5994,3.5974,3.6004,3.6012,3.6018,3.6022,3.5834,3.601,3.601,3.6009,3.6009,3.6009,0,3.5135,3.5178,3.5256,3.5347,3.5414,3.5405,3.5476,3.5533,3.5619,3.5682,3.5754,3.586,3.5946,3.5999,3.6086,3.6138,3.6138,3.616,3.6155,3.6165,3.6036,3.6009,3.6158,3.6158,3.6158,3.6157,3.6157,3.6157,3.5228,3.5338,3.5359,3.5495,3.5537,3.5633,3.5675,3.5731,3.5781,3.5898,3.597,3.6003,3.6062,3.6153,3.6232,3.6245,3.6277,3.6299,3.6311,3.6189,3.6174,3.6159,3.6133,3.6306,3.6307,3.6433,3.6434,3.6435]},{"header":{"parameterUnit":"m.s-1","parameterCategory":1,"la1":30.2991,"la2":30.254,"lo1":-89.0895,"lo2":-89.0444,"dx":0.0017,"dy":0.0017,"nx":28,"ny":28,"refTime":"2022-12-14T09:00:00:Z","depth":0,"parameterNumber":3,"parameterNumberName":"V-component_of_WINDS"},"data":[0,0,0,0,0,0,0,0,0,0,0,0,0,0,0,0,0,0,0,0,0,0,0,0,0,0,0,0,0,0,0,0,0,0,0,0,0,0,0,0,0,0,0,0,0,0,0,0,0,0,0,0,0,0,0,0,0,0,-2.2101,-2.2102,0,-2.2232,-2.2233,-2.2235,-2.2233,-2.2231,-2.2229,-2.2228,-2.2364,-2.2369,-2.2374,0,0,0,0,0,0,0,0,0,0,0,0,0,-2.1851,-2.1856,-2.2101,-2.2102,-2.2104,-2.2232,-2.2233,-2.2235,-2.2233,-2.2231,-2.2229,-2.2227,-2.2362,-2.2368,-2.2374,0,0,0,0,0,0,0,0,0,0,0,0,0,-2.1969,-2.1857,-2.21,-2.2118,-2.2121,-2.2231,-2.2233,-2.2236,-2.2234,-2.2231,-2.2228,-2.2226,-2.236,-2.2368,-2.2375,-2.2477,0,0,-2.2399,-2.2403,0,0,0,0,0,0,0,0,-2.1962,-2.1978,-2.2114,-2.2117,-2.2121,-2.2213,-2.2195,-2.2317,-2.2234,-2.2191,-2.2228,-2.2225,-2.2316,-2.2327,-2.2358,-2.2483,-2.2489,-2.24,-2.2405,-2.2408,-2.241,0,0,0,0,0,0,0,-2.1954,-2.1972,-2.2153,-2.2116,-2.212,-2.2121,-2.2134,-2.2218,-2.2267,-2.2195,-2.2195,-2.221,-2.2317,-2.235,-2.2361,-2.2491,-2.24,-2.2407,-2.2412,-2.2415,-2.2708,-2.2711,0,0,0,0,0,0,-2.1942,-2.1965,-2.2148,-2.2156,-2.2033,-2.2127,-2.2143,-2.2186,-2.2266,-2.2275,-2.2212,-2.221,-2.2338,-2.2352,-2.2366,-2.249,-2.2408,-2.2416,-2.242,-2.2705,-2.2708,-2.2712,0,0,0,0,0,0,-2.1936,-2.1958,-2.2143,-2.2061,-2.2085,-2.2134,-2.2183,-2.219,-2.2223,-2.2279,-2.2288,-2.2237,-2.2336,-2.2354,-2.2449,-2.2495,-2.2419,-2.2426,-2.2701,-2.2706,-2.271,-2.274,0,0,0,0,0,0,-2.1929,-2.1956,-2.1994,-2.2062,-2.2089,-2.2224,-2.2186,-2.2195,-2.2236,-2.2234,-2.2304,-2.2314,-2.2336,-2.2438,-2.2457,-2.2504,-2.2432,-2.2697,-2.2703,-2.2709,-2.2735,-2.2745,-2.2754,0,0,0,0,0,-2.192,-2.1998,-2.1996,-2.2018,-2.2138,-2.2227,-2.2242,-2.2265,-2.224,-2.228,-2.2316,-2.2311,-2.2487,-2.2447,-2.2469,-2.252,-2.2694,-2.2701,-2.2708,-2.2731,-2.2743,-2.2753,0,0,0,0,0,0,-2.1935,-2.2007,-2.2006,-2.2108,-2.2161,-2.2226,-2.2276,-2.2277,-2.2339,-2.2335,-2.2362,-2.2378,-2.2472,-2.2506,-2.246,-2.2623,-2.2588,-2.2599,-2.2598,-2.2609,-2.2618,-2.2609,-2.2439,0,0,0,0,0,-2.195,-2.2015,-2.2075,-2.2159,-2.2185,-2.2226,-2.2266,-2.2279,-2.2336,-2.2358,-2.2402,-2.2457,-2.2525,-2.2569,-2.2634,-2.274,-2.2756,-2.2786,-2.2795,-2.2802,-2.2812,-2.2872,-2.2886,-2.2734,-2.2734,-2.2734,0,0,-2.1982,-2.2029,-2.2069,-2.2163,-2.2206,-2.2274,-2.2245,-2.2318,-2.2369,-2.237,-2.2462,-2.2496,-2.256,-2.266,-2.2707,-2.2691,-2.2858,-2.2811,-2.2816,-2.2822,-2.288,-2.2894,-2.2907,-2.2739,-2.2738,-2.2737,0,0,-2.2074,-2.2116,-2.2191,-2.2235,-2.23,-2.2327,-2.2345,-2.241,-2.2432,-2.2525,-2.2528,-2.2589,-2.2705,-2.2751,-2.2789,-2.29,-2.2899,-2.2921,-2.2969,-2.3027,-2.3038,-2.3049,-2.309,-2.3104,-2.293,-2.293,-2.293,0,-2.2105,-2.2207,-2.223,-2.2303,-2.2345,-2.2348,-2.2425,-2.2467,-2.255,-2.2579,-2.256,-2.2706,-2.2749,-2.2862,-2.2889,-2.292,-2.2942,-2.2913,-2.3035,-2.3046,-2.3056,-2.3095,-2.311,-2.2933,-2.2932,-2.2932,-2.2932,0,-2.2243,-2.2313,-2.2366,-2.2446,-2.2494,-2.2569,-2.2604,-2.265,-2.2659,-2.2689,-2.2784,-2.2836,-2.2912,-2.294,-2.295,-2.3054,-2.3043,-2.3029,-2.2994,-2.3073,-2.311,-2.3125,-2.2936,-2.2935,-2.2934,-2.2934,0,0,-2.2348,-2.244,-2.2459,-2.2496,-2.2568,-2.2624,-2.2699,-2.2774,-2.2813,-2.2871,-2.2935,-2.3034,-2.3022,-2.3066,-2.3081,-2.3132,-2.3218,-2.3112,-2.3114,-2.313,-2.3337,-2.3347,-2.3364,-2.3217,-2.322,-2.3222,-2.3332,0,-2.2449,-2.2582,-2.2605,-2.2722,-2.2788,-2.2792,-2.2858,-2.291,-2.294,-2.3001,-2.3034,-2.3104,-2.3082,-2.3109,-2.3159,-2.3196,-2.326,-2.3189,-2.3278,-2.3281,-2.3263,-2.3383,-2.3394,-2.3495,-2.3346,-2.3349,-2.3351,0,-2.2584,-2.2645,-2.2768,-2.2832,-2.2861,-2.292,-2.299,-2.3048,-2.3108,-2.3126,-2.3175,-2.3185,-2.3265,-2.3226,-2.3337,-2.3289,-2.3327,-2.3351,-2.3355,-2.3365,-2.3321,-2.3397,-2.3528,-2.3543,-2.3374,-2.3372,-2.337,0,-2.2649,-2.2762,-2.285,-2.2882,-2.2959,-2.3,-2.3035,-2.3092,-2.3135,-2.3197,-2.3226,-2.3297,-2.3336,-2.3391,-2.342,-2.3389,-2.3529,-2.3493,-2.3548,-2.3547,-2.3577,-2.3575,-2.3716,-2.3601,-2.36,-2.36,-2.36,0,-2.2759,-2.2835,-2.2881,-2.2935,-2.302,-2.3047,-2.3131,-2.3164,-2.3215,-2.3277,-2.3286,-2.3344,-2.3379,-2.3442,-2.3466,-2.3555,-2.3572,-2.359,-2.3595,-2.3589,-2.3587,-2.3615,-2.3609,-2.3604,-2.3603,-2.3602,-2.3602,0,-2.2847,-2.288,-2.2977,-2.3043,-2.3061,-2.3121,-2.3177,-2.3231,-2.326,-2.3339,-2.3359,-2.3406,-2.3481,-2.3516,-2.3609,-2.3625,-2.3727,-2.3727,-2.3706,-2.3708,-2.3761,-2.3756,-2.3926,-2.3951,-2.3818,-2.3819,-2.382,0,-2.2915,-2.2973,-2.3045,-2.3086,-2.3122,-2.3189,-2.3234,-2.3262,-2.3308,-2.3381,-2.3427,-2.3502,-2.3564,-2.3685,-2.3728,-2.38,-2.3803,-2.3857,-2.3813,-2.3806,-2.3805,-2.3801,-2.3808,-2.3865,-2.3867,-2.3868,-2.3868,0,-2.3033,-2.3047,-2.311,-2.318,-2.3233,-2.329,-2.3345,-2.3379,-2.3417,-2.3469,-2.3546,-2.3594,-2.3689,-2.3765,-2.3839,-2.3876,-2.3879,-2.3882,-2.3899,-2.3894,-2.388,-2.3889,-2.3729,-2.3878,-2.3877,-2.3876,-2.3876,-2.3875,-2.3114,-2.3166,-2.3225,-2.3296,-2.334,-2.3392,-2.3446,-2.3482,-2.3547,-2.3626,-2.3639,-2.3722,-2.3782,-2.3882,-2.3922,-2.3987,-2.3974,-2.3998,-2.4004,-2.401,-2.4014,-2.3868,-2.4001,-2.4001,-2.4,-2.4,-2.4,0,-2.3233,-2.3271,-2.3336,-2.3413,-2.3469,-2.3467,-2.3528,-2.3576,-2.3648,-2.3703,-2.3764,-2.3853,-2.3926,-2.3975,-2.405,-2.4093,-2.4097,-2.4112,-2.411,-2.4118,-2.402,-2.3999,-2.4108,-2.4108,-2.4108,-2.4108,-2.4108,-2.4108,-2.3302,-2.3391,-2.3412,-2.3523,-2.3561,-2.3641,-2.3677,-2.3725,-2.3769,-2.3868,-2.3929,-2.396,-2.4013,-2.4092,-2.416,-2.4173,-2.42,-2.4216,-2.4229,-2.4136,-2.4125,-2.4114,-2.4094,-2.4222,-2.4222,-2.4321,-2.4322,-2.4323]}]]